Powrót do katalogu

CZ-4C DEB

AktywnyLEO
NORAD 45484·DEBRIS·🇨🇳 China

Wystrzelony Apr 10, 2018 z Jiuquan Satellite Launch Center

Loading…

Następne Przeloty (najbliższe 24 godziny)

TLE

ŚwieżeSource: Space-Track

Epoka: Sep 14, 2026, 10:38 UTC

1 45484U 18034M   26257.44369022 -.00000077  00000-0  17648-4 0  9998
2 45484  63.3859 253.3850 0273560   9.0785 351.5043 13.42946604379390

Śledź CZ-4C DEB w czasie rzeczywistym z AllMySat

Download on the App Store